Location: Enborne
(51.3833°N, 1.3667°W)
Time: 00:50:17
(UTC+00:00)

NOSS 2-2 (C) - Pass Details

Date: 25 January 2021
Orbit: 463 x 1745 km, 63.3° (Epoch: 03 March)

Event Time Altitude Azimuth Distance (km) Brightness Sun altitude
Rises 17:46:02 0° 309° (NW) 2,773 7.4 -9.8°
Reaches altitude 10° 17:48:23 10° 325° (NW) 2,005 6.4 -10.1°
Maximum altitude 17:52:06 24° 20° (NNE) 1,491 5.2 -10.7°
Enters shadow 17:55:32 14° 66° (ENE) 2,182 5.7 -11.2°
